Location: Beeston
(52.7000°N, 0.8167°E)
Time: 07:13:19
(UTC+00:00)

ALOS 2 - Pass Details

Date: 15 May 2026
Orbit: 630 x 632 km, 97.9° (Epoch: 5 June)

Event Time Altitude Azimuth Distance (km) Brightness Sun altitude
Exits shadow 22:53:49 31° 140° (SE) 1,124 3.4 -17.1°
Maximum altitude 22:55:48 62° 71° (ENE) 716 2.8 -17.2°
Drops below altitude 10° 23:00:10 10° 351° (N) 2,027 6.5 -17.3°
Sets 23:02:23 0° 348° (NNW) 2,939 7.8 -17.4°
